Location: アルンシュタイン
(50.0000°N, 10.0000°E)
Time: 18:40:09
(UTC+02:00)

Vanguard 1 - All Passes

Search period start: 11 September 2024 00:00
Search period end: 21 September 2024 00:00
Orbit: 649 x 3825 km, 34.2° (Epoch: 11 September)

Date Brightness Start Highest point End Pass type
(mag) Time Alt. Az. Time Alt. Az. Time Alt. Az.
11 Sep - 14:09:26 10° S 14:12:50 13° SSE 14:15:42 10° SE daylight
11 Sep - 16:28:27 10° SW 16:32:21 16° S 16:35:31 10° SE daylight
12 Sep - 14:27:28 10° SSW 14:32:26 16° S 14:36:16 10° SE daylight
12 Sep - 16:47:53 10° SW 16:51:49 17° S 16:55:00 10° SSE daylight
13 Sep - 12:29:44 10° SSE 12:31:49 11° SSE 12:33:43 10° SSE daylight
13 Sep - 14:46:11 10° SW 14:52:01 19° S 14:56:17 10° SE daylight
13 Sep - 17:07:32 10° SW 17:11:15 16° SSW 17:14:18 10° SSE daylight
14 Sep - 12:45:49 10° S 12:51:28 15° SSE 12:55:52 10° SE daylight
14 Sep - 15:05:16 10° SW 15:11:33 21° S 15:16:02 10° SE daylight
14 Sep - 17:27:25 10° SW 17:30:37 14° SSW 17:33:20 10° SSE daylight
15 Sep - 13:03:41 10° SSW 13:11:07 18° SSE 13:16:26 10° SE daylight
15 Sep - 15:24:37 10° SW 15:31:04 22° S 15:35:36 10° SE daylight
15 Sep - 17:47:39 10° SW 17:49:56 12° SSW 17:51:58 10° S daylight
16 Sep - 11:06:08 10° SSE 11:09:53 11° SSE 11:13:11 10° SE daylight
16 Sep - 13:22:13 10° SSW 13:30:43 22° S 13:36:31 10° ESE daylight
16 Sep - 15:44:09 10° SW 15:50:32 22° S 15:55:01 10° SE daylight
17 Sep - 11:21:53 10° S 11:29:32 16° SSE 11:35:24 10° ESE daylight
17 Sep - 13:41:09 10° SW 13:50:19 25° S 13:56:20 10° ESE daylight
17 Sep - 16:03:51 10° WSW 16:09:57 21° SSW 16:14:18 10° SSE daylight
18 Sep - 11:39:22 10° SSW 11:49:10 20° SSE 11:56:08 10° ESE daylight
18 Sep - 14:00:22 10° SW 14:09:53 27° S 14:15:58 10° SE daylight
18 Sep - 16:23:43 10° WSW 16:29:17 19° SSW 16:33:23 10° SSE daylight
19 Sep - 09:43:34 10° SSE 09:47:23 11° SE 09:50:50 10° SE daylight
19 Sep - 11:57:34 10° SSW 12:08:49 24° SSE 12:16:20 10° ESE daylight
19 Sep - 14:19:49 10° WSW 14:29:24 28° S 14:35:28 10° SE daylight
19 Sep - 16:43:46 10° WSW 16:48:33 17° SSW 16:52:14 10° SSE daylight
20 Sep - 09:58:03 10° S 10:06:59 16° SSE 10:14:01 10° ESE daylight
20 Sep - 12:16:16 10° SW 12:28:27 28° SSE 12:36:14 10° ESE daylight
20 Sep - 14:39:25 10° WSW 14:48:53 29° S 14:54:51 10° SE daylight
20 Sep - 17:04:11 10° WSW 17:07:45 14° SSW 17:10:40 10° S daylight
